Flag for China Weather past 2 weeks in Tianjin, Tianjin Municipality, China

Now
32 °F

Haze.


Feels Like: 26 °F
Forecast: 23 / 47 °F
Wind: 6 mph from Southwest

Location: Tianjin / Zhangguizhu

Current Time: Feb 2, 2015 at 9:53:54 AM

Latest Report: Feb 2, 2015 at 9:30 AM


Visibility: 2 mi

Pressure: 30.54 "Hg

Humidity: 37%

Dew point: 9 °F

Location of TianjinLocation

Historic Weather in Tianjin — Graph

°F

Tianjin temperature yesterday

Maximum temperature yesterday: 39 °F (at 4:30 PM)
Minimum temperature yesterday: 18 °F (at 3:30 AM)
Average temperature yesterday: 28 °F

Past Weeks' High & Low Weather Summary

 TemperatureHumidityPressure
High45 °F (Jan 18, 1:00 PM)93% (Jan 20, 6:00 AM)30.74 "Hg (Jan 20, 6:00 AM)
Low16 °F (Jan 27, 7:00 AM)11% (Jan 31, 4:00 PM)30.01 "Hg (Jan 18, 1:00 PM)
Average31 °F51%30.39 "Hg
* Reported Jan 18 8:00 AM — Feb 2 8:30 AM, Tianjin, Weather by CustomWeather, © 2014

Note: Actual official high and low records may vary slightly from our data, if they occured in-between our weather recording intervals... More about our weather records

Advertising

Tianjin weather history for previous 24 hours

 ConditionsComfort  
Time TempWeatherWind HumidityBarometerVisibility
8:30 AM
Feb 2
25 °FIce fog.1 mph74%30.54 "Hg1 mi
8:00 AM19 °FIce fog.1 mph86%30.51 "Hg1 mi
7:30 AM19 °FIce fog.1 mph86%30.51 "Hg1 mi
7:00 AM19 °FHaze.1 mph79%30.51 "Hg1 mi
6:30 AM19 °FHaze.3 mph79%30.51 "Hg2 mi
6:00 AM21 °FHaze.1 mph74%30.51 "Hg2 mi
5:30 AM21 °FHaze.3 mph74%30.51 "Hg2 mi
5:00 AM23 °FHaze.1 mph68%30.54 "Hg2 mi
4:30 AM25 °FHaze.3 mph63%30.54 "Hg2 mi
4:00 AM25 °FHaze.3 mph63%30.54 "Hg2 mi
3:30 AM23 °FHaze.1 mph74%30.54 "Hg2 mi
3:00 AM23 °FHaze.3 mph68%30.54 "Hg2 mi
2:30 AM23 °FHaze.1 mph80%30.54 "Hg2 mi
2:00 AM23 °FHaze.1 mph74%30.54 "Hg1 mi
1:30 AM23 °FHaze.1 mph74%30.54 "Hg1 mi
1:00 AM21 °FHaze.1 mph80%30.54 "Hg1 mi
12:30 AM23 °FHaze.1 mph74%30.54 "Hg1 mi
12:00 AM23 °FHaze.1 mph74%30.54 "Hg2 mi
11:30 PM
Feb 1
25 °FHaze.1 mph69%30.54 "Hg2 mi
11:00 PM25 °FHaze.1 mph69%30.54 "Hg2 mi
10:30 PM25 °FHaze.1 mph69%30.54 "Hg2 mi
10:00 PM27 °FHaze.1 mph59%30.54 "Hg2 mi
9:30 PM28 °FHaze.3 mph51%30.54 "Hg2 mi
9:00 PM28 °FHaze.1 mph51%30.54 "Hg2 mi
8:30 PM30 °FHaze.1 mph43%30.54 "Hg2 mi
8:00 PM30 °FHaze.3 mph40%30.54 "Hg3 mi
7:30 PM30 °FHaze.3 mph43%30.54 "Hg3 mi
7:00 PM30 °FClear.1 mph40%30.54 "Hg4 mi
6:30 PM32 °FClear.1 mph34%30.51 "Hg4 mi
6:00 PM34 °FClear.1 mph29%30.51 "Hg4 mi
5:30 PM37 °FHaze.1 mph23%30.51 "Hg3 mi
5:00 PM37 °FHaze.1 mph23%30.51 "Hg3 mi
4:30 PM39 °FClear.1 mph22%30.51 "Hg4 mi
4:00 PM37 °FClear.1 mph23%30.51 "Hg4 mi
3:30 PM37 °FClear.3 mph23%30.51 "Hg4 mi
3:00 PM37 °FClear.3 mph23%30.51 "Hg4 mi
2:30 PM37 °FClear.3 mph23%30.54 "Hg4 mi
2:00 PM37 °FHaze.6 mph23%30.54 "Hg3 mi
1:30 PM37 °FHaze.6 mph23%30.54 "Hg3 mi
1:00 PM37 °FHaze.8 mph23%30.57 "Hg3 mi
12:30 PM37 °FHaze.3 mph30%30.57 "Hg1 mi
12:00 PM36 °FHaze.1 mph32%30.60 "Hg2 mi
11:30 AM34 °FHaze.1 mph35%30.60 "Hg2 mi
11:00 AM34 °FHaze.1 mph38%30.63 "Hg2 mi
10:30 AM34 °FHaze.1 mph35%30.63 "Hg2 mi
10:00 AM32 °FHaze.1 mph37%30.63 "Hg1 mi
9:30 AM30 °FHaze.1 mph51%30.60 "Hg1 mi
9:00 AM28 °FHaze.1 mph55%30.60 "Hg1 mi
Weather by CustomWeather, © 2014

See weather overviewHow to use our weather pages